Location: Dzierzno
(50.6159°N, 19.2852°E)
Time: 02:07:42
(UTC+00:00)

Spot 4 Rocket - Pass Details

Date: 18 November 2025
Orbit: 769 x 773 km, 98.8° (Epoch: 04 December)

Event Time Altitude Azimuth Distance (km) Brightness Sun altitude
Rises 16:49:52 0° 160° (SSE) 3,229 7.1 -18.3°
Reaches altitude 10° 16:52:10 10° 160° (SSE) 2,306 6.4 -18.6°
Maximum altitude 16:57:15 84° 74° (ENE) 781 3.9 -19.4°
Drops below altitude 10° 17:02:23 10° 346° (NNW) 2,324 6.6 -20.2°
Sets 17:04:42 0° 346° (NNW) 3,255 7.4 -20.6°
